Wind_Speed
21 23 23 23 24 24 25 25 25 25 25 25 25 25 25 24 23 22 22 22 21 21 20 19 19 19 19 19 19 19 19 18 18 18 18 19 19 19 19 19 19 18 19
21 22 23 24 24 23 24 24 25 26 26 26 26 26 26 25 25 24 23 23 22 22 21 20 20 20 20 20 20 20 20 20 20 19 19 19 19 20 20 21 21 21 21
21 22 22 23 23 23 23 24 24 25 25 25 25 25 25 25 25 25 24 24 23 22 22 21 21 21 22 22 22 22 21 21 21 20 20 20 20 20 21 21 22 22 23
22 23 23 23 23 23 23 24 24 24 25 25 25 25 25 26 26 26 26 25 25 24 24 24 23 23 23 22 22 22 22 22 22 22 21 21 22 21 22 22 23 23 23
23 23 23 24 24 25 24 24 25 26 26 26 26 26 27 27 27 27 26 26 26 25 25 25 24 24 24 23 23 23 23 23 23 23 23 23 24 24 24 25 25 25 25
24 24 25 25 25 26 25 26 26 26 26 26 27 27 27 27 28 28 27 26 26 26 26 26 25 25 25 24 24 24 23 23 23 24 25 25 25 25 26 27 27 28 27
25 25 26 26 26 27 27 27 27 26 26 26 27 28 28 28 29 29 29 29 28 28 27 26 25 25 25 25 25 25 25 24 24 25 25 26 26 26 27 28 28 28 29
27 27 27 27 27 27 28 28 27 27 27 27 27 28 29 30 30 30 30 30 30 29 28 28 27 26 26 25 26 26 26 26 26 26 26 27 26 27 27 28 29 29 30
28 27 27 27 27 27 27 28 28 28 27 27 28 28 28 29 31 31 31 31 31 30 29 28 27 27 26 27 27 26 26 26 27 27 27 28 28 28 28 29 29 30 30
28 27 27 27 28 27 27 28 28 28 28 29 29 29 29 29 31 31 31 31 31 30 30 29 28 27 27 27 27 27 27 27 27 27 28 29 29 29 29 30 30 30 31
28 28 28 28 28 28 28 28 28 28 28 29 29 30 30 30 31 31 31 31 31 31 31 30 29 29 29 28 28 28 28 28 28 28 29 29 30 30 30 30 30 30 30
28 28 29 28 28 28 28 28 28 28 28 29 29 29 30 30 30 31 30 30 30 31 31 31 30 30 29 29 29 29 29 29 29 29 29 30 30 30 30 29 29 29 29
28 28 28 28 28 28 28 28 28 27 27 27 27 27 28 29 29 29 29 30 30 30 31 32 31 30 30 30 29 29 29 30 29 30 29 29 29 29 29 29 28 28 28
28 28 28 28 28 28 27 27 26 26 25 25 25 25 26 27 28 27 28 29 29 29 30 31 31 31 30 29 29 29 29 29 29 29 29 29 29 29 29 29 28 27 27
26 26 26 26 26 26 25 25 25 24 24 24 24 24 25 26 27 27 27 28 28 28 29 30 30 30 29 28 28 28 29 29 28 28 28 28 28 27 27 28 28 27 27
24 24 24 24 24 23 23 23 23 22 21 21 22 22 22 23 24 25 26 27 27 27 27 28 28 28 28 28 28 28 28 28 27 27 26 25 25 24 24 24 25 26 25
21 21 22 22 22 21 21 21 20 20 20 20 20 20 21 21 22 23 24 24 24 24 24 24 25 25 26 26 26 26 26 26 25 25 24 24 23 23 23 23 24 24 24
20 20 20 20 20 20 19 19 18 18 18 18 17 17 18 18 19 19 20 21 21 21 22 21 22 22 24 24 24 24 23 23 22 23 23 23 23 23 23 24 23 23 23
18 18 19 19 18 17 17 17 17 16 16 16 15 15 15 15 16 17 17 18 19 19 19 20 20 20 21 22 21 21 20 19 19 19 19 20 20 20 21 21 22 21 22
16 16 15 15 15 14 14 14 14 15 15 14 14 13 14 13 13 14 15 15 15 16 16 18 18 18 18 17 17 17 17 17 16 16 16 17 17 19 20 20 20 20 20
15 15 14 13 13 13 13 13 13 13 13 13 12 12 13 12 12 12 12 13 13 13 14 16 16 16 15 15 15 15 16 15 15 15 15 15 16 17 18 18 18 18 18
14 13 12 12 12 12 12 11 11 11 10 10 10 11 11 11 11 10 10 11 11 12 12 13 13 13 14 13 14 14 14 14 14 14 15 15 15 15 15 16 17 17 17
12 11 11 11 11 11 10 10 9 9 8 8 8 8 9 9 8 8 8 8 8 9 9 9 10 11 12 12 13 13 13 13 13 13 14 14 14 14 14 14 15 17 17
10 10 10 11 10 10 9 9 8 6 6 6 5 5 6 6 5 5 5 5 5 5 6 7 9 10 10 11 11 12 12 12 12 12 12 12 11 12 12 13 14 14 15
9 9 9 10 9 9 8 8 7 6 5 4 3 3 3 3 3 2 2 2 3 3 4 5 6 7 8 8 9 10 11 11 11 11 11 11 11 11 11 12 13 13 13
9 9 9 9 9 8 8 7 7 5 5 4 4 4 3 1 1 1 1 0 0 1 2 2 3 4 5 6 7 8 9 10 10 10 10 10 10 10 10 11 11 11 11
Wind_Direction
287 284 282 279 278 277 277 277 276 276 276 275 273 271 268 267 266 265 263 265 265 264 264 262 260 261 261 261 259 257 258 259 259 258 257 256 256 256 257 256 257 258 258
287 287 286 282 281 281 277 274 274 274 273 273 272 270 268 266 264 263 262 263 262 263 263 262 260 260 261 260 259 260 258 257 257 257 256 255 257 257 258 258 258 259 259
287 287 286 283 282 281 279 275 274 274 272 271 269 266 263 263 264 263 263 261 261 261 260 260 260 260 261 260 260 260 258 257 256 256 257 256 258 259 259 260 259 259 259
288 287 286 284 282 281 279 276 273 272 271 268 267 265 264 264 263 262 260 259 259 258 259 259 259 259 259 260 260 259 259 256 254 254 256 258 258 259 259 259 260 259 259
286 286 284 283 281 280 278 276 275 274 272 268 266 265 264 263 261 261 259 257 257 258 258 259 260 260 259 259 260 261 262 260 257 255 256 258 260 259 259 259 260 261 261
286 285 284 284 281 279 278 277 275 274 271 268 265 264 264 263 260 258 257 256 257 257 258 258 259 260 261 260 260 260 261 262 261 259 259 259 261 261 261 262 261 261 261
287 285 285 284 283 279 278 278 277 275 272 269 266 265 263 262 260 259 258 256 256 256 255 256 259 258 259 258 258 260 260 261 261 260 261 261 261 262 263 263 263 262 261
286 285 284 285 284 280 278 278 277 276 273 269 266 264 263 262 262 261 258 257 257 255 253 254 255 256 256 257 259 260 261 260 261 261 263 263 262 263 263 264 264 263 263
286 285 284 284 284 281 279 277 276 275 273 269 266 265 264 263 262 260 258 258 257 255 253 253 255 256 257 257 259 260 261 261 261 262 263 264 265 266 266 265 265 264 264
287 285 285 285 285 281 279 278 277 276 274 271 268 266 264 263 260 259 260 259 257 255 254 255 256 256 256 257 258 260 261 262 263 264 264 265 267 267 267 265 265 266 266
287 285 284 284 285 283 280 277 276 276 274 272 268 266 266 264 262 259 257 257 257 255 255 254 255 256 257 257 258 259 260 262 263 265 266 266 267 268 268 267 265 265 265
287 286 286 285 284 283 281 279 276 276 274 272 269 268 266 265 263 260 257 253 253 255 255 254 254 255 256 256 257 258 259 261 262 264 265 267 267 268 268 266 265 265 265
287 288 287 285 285 283 282 280 278 276 274 273 271 269 266 264 262 260 257 254 253 253 253 254 253 254 256 256 257 258 259 261 263 264 265 265 265 267 266 264 264 265 264
287 286 285 286 285 283 282 281 279 277 275 273 272 269 266 264 261 259 257 255 253 252 253 253 254 255 256 257 258 258 260 261 262 264 264 264 266 266 263 263 263 264 265
288 286 286 285 285 283 281 280 279 279 277 274 272 269 266 264 261 259 258 256 254 253 254 253 253 254 256 258 258 258 258 260 261 262 263 265 265 264 262 262 263 264 265
293 289 289 288 287 285 282 281 279 277 276 274 273 270 268 266 264 260 258 257 256 256 256 254 253 253 255 257 259 258 258 258 260 260 262 264 264 263 263 264 266 266 267
298 295 293 292 289 287 284 282 279 275 273 273 273 271 269 268 266 262 260 258 257 256 256 253 252 253 255 256 256 256 256 257 257 259 260 260 262 263 266 266 267 267 267
301 298 297 295 293 289 285 281 277 276 274 273 273 273 271 270 268 266 261 257 256 255 255 252 250 252 255 256 256 256 256 258 258 259 258 259 262 265 268 268 268 269 269
304 302 301 300 296 292 286 284 280 277 277 276 276 275 275 272 270 266 263 260 257 254 252 249 249 253 256 254 252 255 255 256 256 257 258 261 264 267 270 271 271 272 271
311 310 310 308 304 296 292 290 286 284 281 278 278 277 276 275 273 268 266 262 258 254 252 249 251 251 251 247 247 249 250 251 255 258 262 265 268 270 272 274 274 273 273
315 314 316 317 314 309 301 294 289 290 285 282 280 278 275 276 277 275 270 261 257 255 254 251 250 250 247 244 244 246 248 251 254 259 266 269 272 273 274 274 272 271 273
319 319 320 323 320 316 312 304 293 292 287 285 280 275 275 277 279 279 272 261 255 254 253 250 249 246 239 239 242 246 250 250 255 260 267 271 274 275 272 272 272 273 274
323 324 324 323 324 326 324 319 309 297 294 292 282 277 280 285 283 279 272 264 257 250 248 245 243 238 236 239 242 244 247 249 257 263 266 272 272 268 272 276 275 277 279
331 330 331 331 330 334 335 336 333 321 307 301 296 295 295 290 289 283 273 269 262 257 257 254 249 245 244 245 246 247 248 254 260 263 266 272 274 277 280 281 281 282 284
336 337 338 339 343 345 345 347 350 350 349 348 341 334 325 306 287 282 286 282 270 265 268 264 254 241 239 243 245 250 253 255 259 263 265 268 274 277 279 280 281 284 287
344 347 348 351 355 356 356 358 1 5 12 18 19 15 18 31 72 69 47 59 258 242 260 258 259 249 250 253 255 258 261 262 262 263 265 268 275 277 279 281 283 287 288
Height
5859 5858 5857 5856 5855 5855 5854 5854 5853 5853 5853 5853 5854 5854 5854 5855 5856 5856 5857 5858 5858 5858 5859 5859 5859 5860 5861 5861 5862 5863 5863 5864 5865 5866 5867 5867 5869 5870 5871 5871 5872 5873 5873
5854 5853 5852 5851 5850 5849 5848 5848 5847 5847 5847 5848 5848 5848 5849 5849 5850 5851 5852 5852 5853 5854 5854 5855 5855 5855 5856 5857 5857 5858 5859 5859 5860 5861 5862 5863 5864 5865 5866 5867 5867 5868 5869
5849 5848 5847 5845 5844 5843 5843 5842 5842 5841 5841 5842 5842 5842 5843 5843 5844 5845 5846 5847 5848 5848 5849 5850 5850 5851 5851 5852 5852 5853 5854 5855 5855 5856 5857 5858 5859 5860 5861 5861 5862 5863 5863
5844 5842 5841 5840 5839 5838 5837 5836 5836 5836 5835 5836 5836 5836 5837 5837 5838 5839 5840 5841 5842 5843 5843 5844 5845 5845 5846 5847 5847 5848 5848 5849 5850 5851 5852 5853 5854 5854 5855 5856 5857 5857 5858
5838 5837 5835 5834 5833 5832 5831 5831 5830 5829 5829 5829 5829 5830 5830 5831 5832 5832 5833 5834 5835 5836 5837 5838 5839 5840 5840 5841 5842 5842 5843 5843 5844 5845 5846 5847 5848 5849 5850 5851 5851 5852 5852
5833 5831 5830 5828 5827 5826 5826 5825 5824 5823 5823 5823 5823 5823 5823 5824 5825 5826 5827 5828 5829 5830 5831 5832 5833 5834 5834 5835 5836 5836 5837 5837 5838 5839 5840 5841 5842 5842 5843 5844 5845 5845 5846
5827 5825 5824 5822 5821 5820 5819 5818 5817 5816 5816 5816 5816 5816 5816 5817 5818 5818 5819 5820 5822 5823 5824 5825 5826 5827 5828 5829 5830 5831 5831 5832 5832 5833 5834 5835 5835 5836 5837 5837 5838 5838 5839
5821 5819 5817 5816 5814 5813 5812 5811 5810 5809 5809 5808 5808 5808 5809 5810 5810 5810 5811 5813 5814 5815 5817 5818 5819 5820 5821 5822 5823 5824 5825 5826 5826 5827 5827 5828 5829 5829 5830 5830 5830 5831 5831
5814 5812 5810 5809 5807 5806 5805 5804 5803 5802 5801 5801 5800 5800 5800 5801 5802 5803 5803 5804 5806 5807 5809 5810 5812 5813 5814 5815 5817 5818 5819 5819 5820 5820 5821 5821 5822 5822 5823 5823 5823 5823 5824
5806 5804 5803 5801 5799 5798 5797 5796 5795 5794 5793 5793 5792 5792 5792 5792 5793 5794 5795 5796 5797 5799 5801 5803 5804 5806 5807 5808 5810 5811 5812 5812 5813 5814 5814 5815 5815 5815 5816 5816 5816 5816 5816
5799 5797 5795 5794 5792 5790 5789 5788 5787 5786 5785 5784 5783 5783 5783 5784 5784 5785 5787 5788 5789 5791 5793 5795 5796 5798 5800 5801 5802 5804 5805 5805 5806 5807 5807 5808 5808 5808 5808 5808 5808 5808 5808
5791 5789 5788 5786 5784 5783 5781 5780 5778 5777 5776 5775 5775 5775 5775 5775 5775 5776 5778 5780 5781 5782 5784 5786 5789 5790 5792 5793 5795 5796 5797 5798 5799 5800 5800 5800 5800 5800 5800 5800 5801 5801 5801
5784 5782 5780 5778 5776 5775 5773 5772 5770 5769 5768 5767 5767 5766 5766 5766 5767 5768 5769 5771 5773 5775 5776 5778 5780 5782 5784 5785 5787 5789 5790 5791 5792 5792 5793 5793 5793 5793 5793 5793 5793 5793 5793
5776 5774 5772 5770 5769 5767 5765 5764 5763 5762 5761 5760 5759 5759 5758 5758 5759 5760 5761 5763 5765 5767 5769 5770 5772 5774 5776 5778 5779 5781 5782 5783 5784 5784 5785 5785 5785 5785 5785 5785 5786 5786 5786
5769 5767 5765 5763 5761 5759 5758 5757 5756 5754 5754 5753 5752 5752 5751 5752 5752 5753 5753 5755 5757 5759 5761 5763 5764 5766 5768 5770 5771 5773 5774 5775 5776 5777 5777 5778 5778 5778 5778 5779 5779 5779 5780
5762 5760 5758 5756 5754 5753 5751 5750 5749 5748 5747 5746 5746 5745 5745 5745 5745 5746 5747 5748 5749 5751 5753 5755 5756 5758 5760 5762 5764 5765 5766 5767 5768 5769 5770 5771 5771 5771 5772 5773 5773 5773 5773
5756 5754 5752 5750 5748 5746 5745 5743 5743 5742 5741 5741 5740 5740 5739 5739 5739 5740 5740 5741 5742 5744 5746 5748 5749 5751 5753 5754 5756 5758 5759 5760 5761 5762 5763 5764 5765 5766 5766 5767 5767 5767 5767
5751 5749 5747 5744 5742 5741 5739 5738 5737 5737 5736 5735 5735 5734 5734 5733 5733 5734 5734 5735 5736 5737 5739 5741 5743 5744 5746 5748 5749 5751 5753 5754 5755 5756 5757 5758 5759 5760 5760 5761 5761 5761 5761
5747 5745 5743 5740 5738 5736 5735 5734 5733 5732 5731 5730 5730 5729 5729 5729 5729 5729 5729 5730 5731 5732 5733 5735 5736 5738 5739 5741 5743 5745 5747 5748 5750 5751 5752 5753 5754 5754 5755 5755 5756 5756 5755
5744 5742 5739 5737 5735 5733 5731 5730 5729 5728 5727 5726 5726 5726 5725 5725 5725 5725 5725 5725 5726 5727 5728 5729 5730 5732 5734 5736 5738 5740 5742 5743 5745 5746 5747 5748 5749 5749 5750 5750 5750 5750 5750
5741 5739 5737 5734 5732 5729 5728 5726 5725 5724 5724 5723 5723 5722 5722 5722 5721 5721 5721 5722 5722 5723 5724 5725 5726 5728 5729 5732 5734 5736 5738 5739 5741 5742 5743 5744 5744 5744 5745 5745 5745 5746 5745
5739 5736 5734 5732 5729 5727 5725 5724 5723 5721 5721 5720 5720 5719 5719 5719 5718 5718 5718 5719 5719 5720 5721 5722 5723 5724 5726 5728 5731 5732 5734 5736 5737 5739 5739 5739 5740 5740 5740 5740 5741 5741 5741
5737 5734 5732 5730 5728 5725 5724 5722 5720 5719 5718 5718 5717 5717 5717 5716 5716 5715 5716 5716 5717 5717 5718 5719 5720 5722 5724 5726 5728 5729 5731 5733 5734 5735 5735 5735 5735 5736 5736 5736 5736 5736 5736
5735 5733 5731 5729 5726 5724 5722 5721 5719 5718 5717 5716 5716 5715 5715 5715 5714 5714 5714 5715 5715 5716 5717 5718 5719 5720 5722 5723 5725 5727 5728 5729 5730 5731 5732 5732 5732 5732 5732 5732 5732 5732 5732
5734 5732 5730 5728 5726 5724 5722 5720 5719 5718 5716 5715 5715 5714 5714 5714 5714 5713 5714 5714 5715 5715 5716 5717 5718 5719 5720 5721 5723 5724 5725 5726 5727 5728 5728 5729 5729 5729 5729 5728 5728 5728 5727
5733 5731 5729 5727 5725 5724 5722 5720 5719 5718 5717 5716 5715 5714 5714 5714 5714 5714 5714 5715 5715 5716 5716 5717 5717 5718 5719 5720 5721 5722 5722 5723 5724 5725 5725 5725 5725 5726 5725 5725 5724 5724 5723